Weather in Volodymyrivka

Ukraine / Kyiv Region     49˚32′06″N   30˚24′27″E
temp.,
°C
wind,
m/s
gust,
m/s
humid.,
%
clouds,
%
prec.,
mm/h
press.,
hPa
HPBL,
m
16 january, sat
sat1623:00−11˚w488996 0.0 1014565
02:00−10˚w489197 0.1 1014828
05:00−11˚wnw51088100 0.1 1013724
08:00−13˚nw469183 0.1 1015523
11:00−14˚wnw578399 0.0 1016551
14:00−14˚wnw578299 0.1 1016632
17:00−15˚wnw4685100 0.0 1017634
20:00−15˚nw3587100 0.1 1018558
17 january, sun
sun1723:00−15˚wnw238885 0.0 1018240
02:00−15˚w239043 0.0 1017144
05:00−15˚nw11890 0.0 101772
08:00−15˚ene11880 0.0 101738
11:00−13˚se007526 0.0 1018274
14:00−12˚n117957 0.0 1017353
17:00−12˚n129091 0.0 101767
20:00−14˚n239160 0.0 1018118
18 january, mon
mon1823:00−14˚nnw23923 0.0 101990
02:00−14˚nw359237 0.0 1019174
05:00−13˚nw3692100 0.0 1019428
08:00−13˚nnw3590100 0.1 1020506
11:00−13˚nw3487100 0.1 1020500
14:00−13˚nw4584100 0.1 1020584
17:00−14˚nw4587100 0.1 1021568
20:00−14˚nw4689100 0.1 1021509
19 january, tue
tue1923:00−15˚nw4690100 0.0 1022467
02:00−15˚nw4690100 0.1 1022410
05:00−15˚nw4691100 0.0 1022338
08:00−16˚nw369398 0.0 1023298
11:00−14˚nw358895 0.0 1024321
14:00−12˚wnw358791 0.0 1023345
17:00−13˚wnw359372 0.0 1024144
20:00−14˚wnw249336 0.0 102593
20 january, wed
wed2023:00−14˚w22910 0.0 102628
02:00−14˚wsw22870 0.0 102733
05:00−13˚ssw22840 0.0 102624
08:00−13˚ssw33850 0.0 102757
11:00−9˚ssw36840 0.0 1028241
14:00−7˚s47820 0.0 1026294
17:00−8˚s510850 0.0 1026238
20:00−8˚s612840 0.0 1026280